Location: Buena Vista Lake
(37.6001°N, 119.5170°W)
Time: 12:20:10
(UTC+00:00)

Cosmos 1484 Rocket - Pass Details

Date: 05 August 2024
Orbit: 474 x 514 km, 97.6° (Epoch: 16 September)

Event Time Altitude Azimuth Distance (km) Brightness Sun altitude
Rises 12:24:43 0° 13° (NNE) 2,532 6.9 -8.2°
Reaches altitude 10° 12:26:47 10° 15° (NNE) 1,648 5.9 -7.9°
Maximum altitude 12:30:19 75° 102° (ESE) 496 2.7 -7.2°
Drops below altitude 10° 12:33:50 10° 188° (S) 1,640 4.9 -6.6°
Sets 12:35:53 0° 190° (S) 2,518 5.8 -6.3°
